Weather History for Asyut, Egypt

Change the Weather History Date:

Sunday, January 26, 2014

  Actual Average Record
Temperature  
Mean Temperature 68 °F -  
Max Temperature 86 °F 70 °F - ()
Min Temperature 50 °F 43 °F - ()
Cooling Degree Days 3    
Growing Degree Days 18 (Base 50)    
Moisture  
Dew Point 37 °F    
Average Humidity 40    
Maximum Humidity 76    
Minimum Humidity 4    
Precipitation  
Precipitation 0.00 in 0.00 in - ()
Sea Level Pressure  
Sea Level Pressure 29.80 in    
Wind  
Wind Speed 8 mph ()    
Max Wind Speed 24 mph    
Max Gust Speed -    
Visibility 5.2 miles    
Events      
T = Trace of Precipitation, MM = Missing Value Source: Averaged Metar Reports

Daily Weather History Graph

Daily Weather History Graph

Search for Another Location

Airport:

Trip Planner

Search our weather history database for the weather conditions in past years. The results will help you decide how hot, cold, wet, or windy it might be!

Date:

Astronomy

Jan. 26, 2014 Rise Set
Actual Time 6:44 AM EET 5:32 PM EET
Civil Twilight 6:19 AM EET 5:57 PM EET
Nautical Twilight 5:51 AM EET 6:25 PM EET
Astronomical Twilight 5:23 AM EET 6:53 PM EET
Moon 1:59 AM EET (1/26) 1:06 PM EET (1/26)
Length of Visible Light 11h 37m
Length of Day
10h 48m
Waning Crescent, 27% of the Moon is Illuminated
Jan 26
Waning Crescent
Jan 30
New
Feb 6
First Quarter
Feb 15
Full
Feb 22
Last Quarter

Hourly Weather History & Observations

Time (EET) Temp. Dew Point Humidity Pressure Visibility Wind Dir Wind Speed Gust Speed Precip Events Conditions
12:00 AM 62.6 °F 44.6 °F 52% 29.86 in - SE 6.9 mph - N/A   Clear
1:00 AM 60.8 °F 44.6 °F 55% 29.86 in - SE 6.9 mph - N/A   Clear
2:00 AM 56 °F 41 °F 46% 29.86 in 6 mi South 1.2 mph - -  
2:00 AM 55.4 °F 41.0 °F 58% 29.86 in - South 1.2 mph - N/A   Clear
3:00 AM 53.6 °F 41.0 °F 62% 29.86 in - Calm Calm - N/A   Clear
4:00 AM 51.8 °F 41.0 °F 67% 29.86 in - Calm Calm - N/A   Clear
5:00 AM 51 °F 44 °F 68% 29.82 in 6 mi SSE 3.5 mph - -  
5:00 AM 50.0 °F 42.8 °F 76% 29.83 in - SSE 3.5 mph - N/A   Clear
6:00 AM 48.2 °F 41.0 °F 76% 29.80 in - SE 4.6 mph - N/A   Clear
7:00 AM 48.2 °F 41.0 °F 76% 29.80 in - ESE 6.9 mph - N/A   Clear
8:00 AM 57 °F 49 °F 67% 29.81 in 6 mi SE 11.5 mph - -  
8:00 AM 57.2 °F 48.2 °F 72% 29.80 in - SE 11.5 mph - N/A   Clear
9:00 AM 66.2 °F 48.2 °F 52% 29.77 in - SSE 11.5 mph - N/A   Clear
10:00 AM 75.2 °F 23.0 °F 14% 29.77 in 4.3 mi SSE 20.7 mph - N/A   Partly Cloudy
11:00 AM 77 °F 28 °F 8% 29.78 in 6 mi SSE 12.7 mph - -   Partly Cloudy
11:00 AM 77.0 °F 28.4 °F 17% 29.77 in 6.2 mi SSE 12.7 mph - N/A   Scattered Clouds
12:00 PM 78.8 °F 28.4 °F 16% 29.77 in 6.2 mi SSE 16.1 mph - N/A   Scattered Clouds
1:00 PM 78.8 °F 30.2 °F 17% 29.74 in 6.2 mi South 18.4 mph - N/A   Scattered Clouds
2:00 PM 85 °F 12 °F 4% 29.70 in 6 mi South 18.4 mph - -   Partly Cloudy
2:00 PM 84.2 °F 12.2 °F 7% 29.71 in 6.2 mi South 18.4 mph - N/A   Scattered Clouds
3:00 PM 86.0 °F 12.2 °F 6% 29.71 in 6.2 mi SSW 16.1 mph - N/A   Scattered Clouds
4:00 PM 77.0 °F 50.0 °F 39% 29.74 in 1.2 mi WNW 24.2 mph - N/A   Sand
5:00 PM 72 °F 35 °F 16% 29.75 in 3 mi WNW 16.1 mph - -   Haze
5:00 PM 71.6 °F 35.6 °F 27% 29.77 in 3.1 mi WNW 16.1 mph - N/A   Sand
6:00 PM 69.8 °F 35.6 °F 28% 29.77 in 4.3 mi WNW 5.8 mph - N/A   Unknown
7:00 PM 68.0 °F 35.6 °F 30% 29.80 in - WNW 8.1 mph - N/A   Clear
8:00 PM 65 °F 41 °F 29% 29.81 in 6 mi WNW 8.1 mph - -  
8:00 PM 64.4 °F 41.0 °F 42% 29.83 in - WNW 8.1 mph - N/A   Clear
9:00 PM 62.6 °F 41.0 °F 45% 29.83 in - NW 9.2 mph - N/A   Clear
10:00 PM 60.8 °F 41.0 °F 48% 29.86 in - NW 5.8 mph - N/A   Clear
11:00 PM 61 °F 37 °F 29% 29.85 in 6 mi WNW 5.8 mph - -  
11:00 PM 60.8 °F 37.4 °F 42% 29.86 in - WNW 5.8 mph - N/A   Clear